IZ3MEZ-13 Weather Reports


time (UTC)temp
C
wind
direction
speed
KPH
gust
KPH
rain 1hr
cm
rain 24hr
cm
rain mn
cm
humidity
%
barometer
mb
20260906091520 29 8 0.0 4.8 0.00 0.00 0.00 55 1024.9
20260906090525 29 0.0 0.0 0.00 0.00 0.00 56 1025.0
20260906085516 29 25 0.0 3.2 0.00 0.00 0.00 57 1024.9
20260906084523 28 6 0.0 3.2 0.00 0.00 0.00 58 1024.8
20260906083521 27 358 0.0 1.6 0.00 0.00 0.00 61 1024.8
20260906082518 27 0.0 0.0 0.00 0.00 0.00 62 1024.8
20260906081521 26 355 0.0 1.6 0.00 0.00 0.00 63 1024.7
20260906080518 26 23 0.0 3.2 0.00 0.00 0.00 65 1024.8
20260906075519 26 14 0.0 1.6 0.00 0.00 0.00 65 1024.6
20260906074516 25 0.0 0.0 0.00 0.00 0.00 67 1024.6
20260906073531 25 341 0.0 1.6 0.00 0.00 0.00 68 1024.4
20260906072520 25 12 0.0 3.2 0.00 0.00 0.00 70 1024.4
20260906071523 24 289 0.0 1.6 0.00 0.00 0.00 72 1024.4
20260906070516 24 0.0 0.0 0.00 0.00 0.00 73 1024.3
20260906065522 23 0.0 0.0 0.00 0.00 0.00 75 1024.3
20260906064519 23 0.0 0.0 0.00 0.00 0.00 76 1024.2
20260906063518 22 38 0.0 1.6 0.00 0.00 0.00 78 1023.9
20260906062521 22 0.0 0.0 0.00 0.00 0.00 80 1024.0
20260906061530 22 0.0 0.0 0.00 0.00 0.00 81 1024.0
20260906060519 21 0.0 0.0 0.00 0.00 0.00 82 1023.7
20260906055522 21 0.0 0.0 0.00 0.00 0.00 84 1023.6
20260906054521 20 0.0 0.0 0.00 0.00 0.00 85 1023.5
20260906053520 20 0.0 0.0 0.00 0.00 0.00 86 1023.6
20260906052519 19 0.0 0.0 0.00 0.00 0.00 85 1023.3
20260906051515 19 0.0 0.0 0.00 0.00 0.00 85 1023.2
20260906050520 20 0.0 0.0 0.00 0.00 0.00 84 1023.1
20260906045525 20 0.0 0.0 0.00 0.00 0.00 83 1023.0
20260906044518 20 0.0 0.0 0.00 0.00 0.00 83 1022.9
20260906043521 20 0.0 0.0 0.00 0.00 0.00 82 1022.8
20260906042518 21 0.0 0.0 0.00 0.00 0.00 81 1022.6
20260906041519 21 0.0 0.0 0.00 0.00 0.00 81 1022.6
20260906040524 21 0.0 0.0 0.00 0.00 0.00 81 1022.5
20260906035531 21 15 0.0 3.2 0.00 0.00 0.00 81 1022.4
20260906034518 21 0.0 0.0 0.00 0.00 0.00 82 1022.3
20260906033526 21 0.0 0.0 0.00 0.00 0.00 82 1022.2
20260906032515 21 0.0 0.0 0.00 0.00 0.00 83 1022.2
20260906031522 21 0.0 0.0 0.00 0.00 0.00 84 1022.3
20260906030517 21 0.0 0.0 0.00 0.00 0.00 84 1022.4
20260906025518 21 0.0 0.0 0.00 0.00 0.00 86 1022.3
20260906024523 20 0.0 0.0 0.00 0.00 0.00 87 1022.3
20260906023530 20 0.0 0.0 0.00 0.00 0.00 87 1022.3
20260906022519 20 0.0 0.0 0.00 0.00 0.00 87 1022.2
20260906021516 21 0.0 0.0 0.00 0.00 0.00 87 1022.2
20260906020529 21 0.0 0.0 0.00 0.00 0.00 86 1022.2
20260906015522 21 0.0 0.0 0.00 0.00 0.00 86 1022.1
20260906014519 22 0.0 0.0 0.00 0.00 0.00 86 1022.0
20260906013516 22 0.0 0.0 0.00 0.00 0.00 87 1022.0
20260906012522 22 0.0 0.0 0.00 0.00 0.00 88 1021.9
20260906011519 22 0.0 0.0 0.00 0.00 0.00 90 1021.8
20260906010518 22 0.0 0.0 0.00 0.00 0.00 89 1021.9
20260906005523 22 0.0 0.0 0.00 0.00 0.00 89 1021.8
20260906004528 22 0.0 0.0 0.00 0.00 0.00 89 1021.8
20260906003519 22 0.0 0.0 0.00 0.00 0.00 89 1021.9
20260906002520 22 0.0 0.0 0.00 0.00 0.00 88 1022.0
20260906001519 22 0.0 0.0 0.00 0.00 0.00 89 1022.0
20260906000520 23 0.0 0.0 0.00 0.00 0.00 89 1021.9
20260905235527 23 0.0 0.0 0.00 0.00 0.00 89 1021.8
20260905234516 23 0.0 0.0 0.00 0.00 0.00 90 1021.8
20260905233523 23 0.0 0.0 0.00 0.00 0.00 91 1021.7
20260905232526 23 0.0 0.0 0.00 0.00 0.00 91 1021.6
20260905231519 23 0.0 0.0 0.00 0.00 0.00 91 1021.7
20260905230519 23 0.0 0.0 0.00 0.00 0.00 91 1021.7
20260905225522 23 0.0 0.0 0.00 0.00 0.00 92 1021.5
20260905224519 23 0.0 0.0 0.00 0.00 0.00 92 1021.5
20260905223526 23 0.0 0.0 0.00 0.00 0.00 92 1021.5
20260905222517 -17 0.0 0.0 0.00 0.00 0.00
20260905221520 -17 0.0 0.0 0.00 0.00 0.00
20260905220527 -17 0.0 0.0 0.00 0.00 0.00
20260905215516 -17 0.0 0.0 0.00 0.00 0.00
20260905214522 -17 0.0 0.0 0.00 0.00 0.00
20260905213521 -17 0.0 0.0 0.00 0.00 0.00
20260905212518 -17 0.0 0.0 0.00 0.00 0.00
20260905211521 -17 0.0 0.0 0.00 0.00 0.00
20260905210522 -17 0.0 0.0 0.00 0.00 0.00
20260905205519 -17 0.0 0.0 0.00 0.00 0.00
20260905204526 -17 0.0 0.0 0.00 0.00 0.00
20260905203523 -17 0.0 0.0 0.00 0.00 0.00
20260905202522 -17 0.0 0.0 0.00 0.00 0.00
20260905201519 23 0.0 0.0 0.00 0.00 0.00 88 1020.4
20260905200516 23 0.0 0.0 0.00 0.00 0.00 88 1020.4
20260905195521 23 0.0 0.0 0.00 0.00 0.00 87 1020.3
20260905194528 24 0.0 0.0 0.00 0.00 0.00 87 1020.0
20260905193517 24 0.0 0.0 0.00 0.00 0.00 86 1019.7
20260905192518 24 0.0 0.0 0.00 0.00 0.00 85 1019.8
20260905191521 24 0.0 0.0 0.00 0.00 0.00 85 1019.6
20260905190532 25 0.0 0.0 0.00 0.00 0.00 84 1019.5
20260905185517 25 0.0 0.0 0.00 0.00 0.00 83 1019.5
20260905184528 25 0.0 0.0 0.00 0.00 0.00 82 1019.3
20260905183517 25 0.0 0.0 0.00 0.00 0.00 81 1019.1
20260905182526 26 0.0 0.0 0.00 0.00 0.00 80 1018.9
20260905181515 26 0.0 0.0 0.00 0.00 0.00 78 1018.8
20260905180518 26 0.0 0.0 0.00 0.00 0.00 76 1018.8
20260905175522 27 0.0 0.0 0.00 0.00 0.00 75 1018.6
20260905174540 27 0.0 0.0 0.00 0.00 0.00 73 1018.4
20260905173537 28 0.0 0.0 0.00 0.00 0.00 70 1018.3
20260905172526 29 0.0 0.0 0.00 0.00 0.00 68 1018.2
20260905171519 30 0.0 0.0 0.00 0.00 0.00 65 1018.2
20260905170524 30 0.0 0.0 0.00 0.00 0.00 61 1018.0
20260905165521 31 0.0 0.0 0.00 0.00 0.00 57 1018.0
20260905164520 33 0.0 0.0 0.00 0.00 0.00 53 1017.9
20260905163527 35 0.0 0.0 0.00 0.00 0.00 47 1017.7
20260905162516 37 0.0 0.0 0.00 0.00 0.00 45 1017.8
20260905161523 37 0.0 0.0 0.00 0.00 0.00 45 1017.8
20260905160516 37 0.0 0.0 0.00 0.00 0.00 44 1017.8
20260905155519 38 0.0 0.0 0.00 0.00 0.00 43 1017.6
20260905154523 38 0.0 0.0 0.00 0.00 0.00 41 1017.7
20260905153520 39 0.0 0.0 0.00 0.00 0.00 40 1017.5
20260905152519 40 0.0 0.0 0.00 0.00 0.00 40 1017.5
20260905151520 40 0.0 0.0 0.00 0.00 0.00 41 1017.6
20260905150518 39 0.0 0.0 0.00 0.00 0.00 40 1017.5
20260905145523 39 0.0 0.0 0.00 0.00 0.00 41 1017.7
20260905144524 39 0.0 0.0 0.00 0.00 0.00 40 1017.6
20260905143517 38 0.0 0.0 0.00 0.00 0.00 42 1017.7
20260905142522 38 0.0 0.0 0.00 0.00 0.00 42 1017.6
20260905141521 38 0.0 0.0 0.00 0.00 0.00 42 1017.8
20260905140518 37 203 0.0 4.8 0.00 0.00 0.00 43 1017.7
20260905135521 38 216 0.0 4.8 0.00 0.00 0.00 44 1017.8
20260905134530 37 0.0 0.0 0.00 0.00 0.00 46 1018.0
20260905133519 36 0.0 0.0 0.00 0.00 0.00 47 1017.9
20260905132521 36 241 0.0 4.8 0.00 0.00 0.00 47 1018.1
20260905131518 36 0.0 0.0 0.00 0.00 0.00 49 1018.3
20260905130519 36 0.0 0.0 0.00 0.00 0.00 50 1018.3
20260905125520 35 0.0 0.0 0.00 0.00 0.00 50 1018.3
20260905124517 35 210 0.0 1.6 0.00 0.00 0.00 52 1018.5
20260905123520 35 205 0.0 1.6 0.00 0.00 0.00 52 1018.6
20260905122517 35 224 0.0 3.2 0.00 0.00 0.00 53 1018.8
20260905121518 35 230 0.0 6.4 0.00 0.00 0.00 53 1018.8
20260905120519 35 239 0.0 4.8 0.00 0.00 0.00 53 1018.8
20260905115528 35 0.0 0.0 0.00 0.00 0.00 53 1018.9
20260905114521 35 225 0.0 3.2 0.00 0.00 0.00 53 1018.8
20260905113522 34 215 0.0 1.6 0.00 0.00 0.00 54 1018.9
20260905112518 33 231 0.0 3.2 0.00 0.00 0.00 53 1018.9
20260905111521 33 243 0.0 3.2 0.00 0.00 0.00 55 1018.9
20260905110522 33 0.0 0.0 0.00 0.00 0.00 56 1019.0
20260905105517 33 0.0 0.0 0.00 0.00 0.00 59 1019.0
20260905104518 31 0.0 0.0 0.00 0.00 0.00 64 1019.1
20260905103529 31 0.0 0.0 0.00 0.00 0.00 67 1019.1
20260905102518 30 0.0 0.0 0.00 0.00 0.00 68 1019.0
20260905101519 30 0.0 0.0 0.00 0.00 0.00 68 1019.1
20260905100516 30 0.0 0.0 0.00 0.00 0.00 69 1019.1
20260905095520 30 0.0 0.0 0.00 0.00 0.00 69 1019.2
20260905094525 30 0.0 0.0 0.00 0.00 0.00 69 1019.3
20260905093526 30 0.0 0.0 0.00 0.00 0.00 70 1019.2
20260905092521 29 0.0 0.0 0.00 0.00 0.00 72 1019.2